Location: Agus-us
(14.2247°N, 120.8593°E)
Time: 18:07:14
(UTC+00:00)

Cosmos 1898 Rocket - Pass Details

Date: 13 December 2025
Orbit: 749 x 779 km, 74.0° (Epoch: 20 January)

Event Time Altitude Azimuth Distance (km) Brightness Sun altitude
Exits shadow 21:02:55 17° 332° (NNW) 1,853 5.1 -16.4°
Maximum altitude 21:06:48 56° 258° (WSW) 920 3.6 -15.5°
Drops below altitude 10° 21:11:57 10° 181° (S) 2,322 6.2 -14.4°
Sets 21:14:23 0° 177° (S) 3,250 7.1 -13.8°
